This is the latest recevied weather packets stored in our database for station/object IW0REF-9. If no packets are shown the sender has not sent any weather packets the latest 1 day(s).
| Time | Temp. | Humidity | Pressure | Rain* | Wind** | Luminosity | Snow |
|---|---|---|---|---|---|---|---|
| 1778081011 | 22.78° C | 29% | 996.6 hPa | - | - | - | - |
| 1778078311 | 24.44° C | 29% | 996.5 hPa | - | - | - | - |
| 1778077411 | 23.89° C | 28% | 996.7 hPa | - | - | - | - |
| 1778076511 | 25.56° C | 27% | 996.6 hPa | - | - | - | - |
| 1778075611 | 27.78° C | 25% | 996.8 hPa | - | - | - | - |
| 1778072911 | 25.56° C | 30% | 997 hPa | - | - | - | - |
| 1778070210 | 23.89° C | 31% | 997.3 hPa | - | - | - | - |
| 1778069310 | 23.89° C | 32% | 997.2 hPa | - | - | - | - |
| 1778068410 | 22.78° C | 33% | 997.4 hPa | - | - | - | - |
| 1778067510 | 22.78° C | 33% | 997.4 hPa | - | - | - | - |
| 1778062109 | 24.44° C | 37% | 997.3 hPa | - | - | - | - |
| 1778061209 | 23.89° C | 39% | 997.3 hPa | - | - | - | - |
| 1778059409 | 21.67° C | 39% | 997.3 hPa | - | - | - | - |
| 1778058509 | 21.11° C | 39% | 997.4 hPa | - | - | - | - |
| 1778054909 | 21.67° C | 40% | 997.1 hPa | - | - | - | - |
| 1778054008 | 20° C | 40% | 997.1 hPa | - | - | - | - |
| 1778053108 | 18.89° C | 41% | 996.9 hPa | - | - | - | - |
| 1778051308 | 19.44° C | 40% | 997.2 hPa | - | - | - | - |
| 1778050408 | 18.89° C | 41% | 997.3 hPa | - | - | - | - |
| 1778049508 | 18.89° C | 40% | 997.2 hPa | - | - | - | - |
| 1778048608 | 18.33° C | 42% | 997.1 hPa | - | - | - | - |
| 1778045907 | 17.22° C | 43% | 997.2 hPa | - | - | - | - |
| 1778044107 | 17.22° C | 44% | 996.9 hPa | - | - | - | - |
| 1778043207 | 16.67° C | 45% | 997 hPa | - | - | - | - |
| 1778042307 | 16.67° C | 45% | 997.3 hPa | - | - | - | - |
* Rain since midnight (hover to see other rain measurements)
** Current wind speed in m/s (hover to see current wind gust speed)